Location: Lombard
(41.8800°N, 88.0080°W)
Time: 04:41:04
(UTC-05:00)

DOVE 4 - Visible Passes

Search period start: 16 May 2022 00:00
Search period end: 26 May 2022 00:00
Orbit: 587 x 799 km, 97.8° (Epoch: 16 May)

Date Brightness Start Highest point End Pass type
(mag) Time Alt. Az. Time Alt. Az. Time Alt. Az.
16 May ? 01:28:37 10° N 01:31:22 25° NW 01:31:22 25° NW visible
17 May ? 00:30:21 10° NNE 00:32:57 36° NNE 00:32:57 36° NNE visible
17 May ? 02:10:29 10° NW 02:11:32 11° WNW 02:11:38 11° WNW visible
17 May ? 23:33:54 10° NE 23:34:33 12° ENE 23:34:33 12° ENE visible
18 May ? 01:10:18 10° N 01:13:14 35° NW 01:13:14 35° NW visible
19 May ? 00:12:29 10° NNE 00:14:50 28° NE 00:14:50 28° NE visible
19 May ? 01:51:07 10° NNW 01:53:31 16° WNW 01:53:31 16° WNW visible
20 May ? 00:52:07 10° N 00:55:06 44° N 00:55:06 44° N visible
20 May ? 23:54:46 10° NE 23:56:41 21° ENE 23:56:41 21° ENE visible
21 May ? 01:32:28 10° NNW 01:35:23 24° WNW 01:35:23 24° WNW visible
22 May ? 00:34:03 10° NNE 00:36:58 44° NNE 00:36:58 44° NNE visible
22 May ? 23:37:21 10° NE 23:38:33 14° ENE 23:38:33 14° ENE visible
23 May ? 01:14:03 10° N 01:17:14 35° NW 01:17:14 35° NW visible
24 May ? 00:16:06 10° NNE 00:18:49 35° NE 00:18:49 35° NE visible
24 May ? 01:55:01 10° NNW 01:57:20 15° WNW 01:57:30 15° WNW visible
25 May ? 00:55:48 10° N 00:59:05 49° NNW 00:59:05 49° NNW visible
